Location: Carnières
(50.1682°N, 3.3474°E)
Time: 21:32:49
(UTC+00:00)

SL-16 R/B - Pass Details

Date: 09 August 2024
Orbit: 842 x 845 km, 71.0° (Epoch: 10 September)

Event Time Altitude Azimuth Distance (km) Brightness Sun altitude
Exits shadow 01:11:11 34° 247° (WSW) 1,352 2.9 -21.8°
Maximum altitude 01:13:22 54° 305° (NW) 1,023 2.6 -21.7°
Drops below altitude 10° 01:18:56 10° 23° (NNE) 2,476 5.8 -21.4°
Sets 01:21:28 0° 28° (NNE) 3,416 6.9 -21.2°
